FW8450 Weather Reports


Display with metric or nautical units.
time (UTC)temp
F
wind
direction
speed
MPH
gust
MPH
rain 1hr
in
rain 24hr
in
rain mn
in
humidity
%
barometer
mb
20260507000054 57 247 0.0 4.0 0.00 0.00 0.00 79 1019.5
20260506234555 57 259 1.0 7.0 0.00 0.00 0.00 78 1019.5
20260506233110 57 230 2.0 4.0 0.00 0.00 0.00 77 1019.5
20260506231602 58 267 2.0 4.0 0.00 0.00 0.00 77 1019.4
20260506230057 59 281 1.0 4.0 0.00 0.00 0.00 75 1019.5
20260506224554 59 0 1.0 6.0 0.00 0.00 0.00 75 1019.6
20260506223055 60 171 1.0 7.0 0.00 0.00 0.00 75 1019.5
20260506221553 60 107 1.0 6.0 0.00 0.00 0.00 76 1019.7
20260506220054 59 223 1.0 7.0 0.00 0.00 0.00 77 1019.8
20260506214555 60 269 0.0 9.0 0.00 0.00 0.00 76 1019.7
20260506213111 60 215 2.0 7.0 0.00 0.00 0.00 75 1019.7
20260506211553 61 296 2.0 10.0 0.00 0.00 0.00 75 1019.8
20260506210054 61 247 2.0 9.0 0.00 0.00 0.00 75 1019.7
20260506204553 60 275 2.0 6.0 0.00 0.00 0.00 77 1019.7
20260506203054 59 186 1.0 4.0 0.00 0.00 0.00 81 1019.5
20260506201552 58 161 1.0 4.0 0.00 0.00 0.00 82 1019.6
20260506200055 57 0 0.0 5.0 0.00 0.00 0.00 84 1019.7
20260506194602 57 0 0.0 4.0 0.00 0.00 0.00 83 1019.7
20260506193053 57 0 1.0 4.0 0.00 0.00 0.00 84 1019.5
20260506191555 57 176 1.0 5.0 0.00 0.00 0.00 84 1019.5
20260506190053 57 0 1.0 6.0 0.00 0.00 0.00 84 1019.4
20260506184609 57 163 0.0 4.0 0.00 0.00 0.00 85 1019.3
20260506183103 56 171 0.0 3.0 0.00 0.00 0.00 86 1019.2
20260506181621 56 238 0.0 6.0 0.00 0.00 0.00 87 1019.2
20260506180054 56 208 1.0 4.0 0.00 0.00 0.00 86 1019.2
20260506174554 56 0 0.0 3.0 0.00 0.00 0.00 86 1019.2
20260506173108 55 0 0.0 2.0 0.00 0.00 0.00 89 1018.8
20260506171555 55 0 0.0 2.0 0.00 0.00 0.00 89 1019.1
20260506170057 55 266 0.0 2.0 0.00 0.00 0.00 87 1019.3
20260506164554 55 0 0.0 2.0 0.00 0.00 0.00 87 1019.1
20260506163055 55 186 0.0 3.0 0.00 0.00 0.00 88 1019.2
20260506161554 55 198 0.0 2.0 0.00 0.00 0.00 89 1018.9
20260506160108 54 0 0.0 2.0 0.00 0.00 0.00 90 1018.9
20260506154603 54 0 0.0 1.0 0.00 0.00 0.00 91 1018.7
20260506153112 54 125 0.0 2.0 0.00 0.00 0.00 91 1018.6
20260506151556 54 0 0.0 1.0 0.00 0.00 0.00 92 1018.7
20260506150100 54 0 0.0 1.0 0.00 0.00 0.00 91 1019.1
20260506144557 53 0 0.0 1.0 0.00 0.00 0.00 91 1018.7
20260506143053 53 197 0.0 1.0 0.00 0.00 0.00 91 1018.6
20260506141553 53 0 0.0 1.0 0.00 0.00 0.00 91 1018.5
20260506140054 53 0 0.0 2.0 0.00 0.00 0.00 92 1018.5
20260506134600 53 0 0.0 0.0 0.00 0.00 0.00 92 1018.5
20260506133058 53 0 0.0 1.0 0.00 0.00 0.00 92 1018.4
20260506131555 53 0 0.0 0.0 0.00 0.00 0.00 93 1018.5
20260506130057 52 0 0.0 0.0 0.00 0.00 0.00 93 1018.2
20260506124554 52 0 0.0 0.0 0.00 0.00 0.00 93 1018.0
20260506123054 52 0 0.0 0.0 0.00 0.00 0.00 93 1017.9
20260506121555 52 0 0.0 1.0 0.00 0.00 0.00 93 1018.0
20260506120057 52 0 0.0 0.0 0.00 0.00 0.00 93 1018.0
20260506114558 52 0 0.0 0.0 0.00 0.00 0.00 93 1017.9
20260506113053 52 0 0.0 0.0 0.00 0.00 0.00 93 1017.8
20260506111551 52 0 0.0 1.0 0.00 0.00 0.00 93 1017.7
20260506110057 52 0 0.0 1.0 0.00 0.00 0.00 93 1017.4
20260506104558 51 0 0.0 0.0 0.00 0.00 0.00 93 1017.3
20260506103056 51 0 0.0 1.0 0.00 0.00 0.00 93 1017.1
20260506101552 51 0 0.0 1.0 0.00 0.00 0.00 93 1017.1
20260506100055 51 0 0.0 0.0 0.00 0.00 0.00 93 1016.9
20260506094552 51 0 0.0 0.0 0.00 0.00 0.00 93 1016.8
20260506093053 51 0 0.0 1.0 0.00 0.00 0.00 93 1016.8
20260506091600 51 0 0.0 1.0 0.00 0.00 0.00 93 1016.8
20260506090059 51 0 0.0 0.0 0.00 0.00 0.00 93 1016.8
20260506084600 51 0 0.0 0.0 0.00 0.00 0.00 93 1016.6
20260506083052 52 0 0.0 0.0 0.00 0.00 0.00 93 1016.4
20260506081557 52 0 0.0 0.0 0.00 0.00 0.00 92 1016.3
20260506080105 52 0 0.0 0.0 0.00 0.00 0.00 92 1016.2
20260506073056 53 0 0.0 0.0 0.00 0.00 0.00 90 1015.9
20260506071602 53 0 0.0 1.0 0.00 0.00 0.00 89 1015.9
20260506061553 55 0 0.0 1.0 0.00 0.00 0.00 88 1015.7
20260506050103 56 0 0.0 1.0 0.00 0.00 0.00 86 1015.0
20260506044554 56 0 0.0 1.0 0.00 0.00 0.00 86 1015.0
20260506043051 57 0 0.0 1.0 0.00 0.00 0.00 86 1014.9
20260506041553 57 126 0.0 1.0 0.00 0.00 0.00 84 1014.7
20260506040054 58 0 0.0 0.0 0.00 0.00 0.00 83 1014.6
20260506034612 59 0 0.0 1.0 0.00 0.00 0.00 82 1014.6
20260506033054 60 0 0.0 1.0 0.00 0.00 0.00 79 1014.5
20260506031552 62 0 0.0 0.0 0.00 0.00 0.00 77 1014.3
20260506030051 63 0 0.0 1.0 0.00 0.00 0.00 75 1014.2
20260506024613 64 234 0.0 2.0 0.00 0.00 0.00 74 1014.2
20260506023058 67 263 0.0 1.0 0.00 0.00 0.00 71 1014.1
20260506021554 69 0 0.0 1.0 0.00 0.00 0.00 67 1014.2
20260506020053 69 0 0.0 1.0 0.00 0.00 0.00 67 1014.1
20260506014600 68 0 0.0 1.0 0.00 0.00 0.00 68 1014.1
20260506013107 67 0 0.0 2.0 0.00 0.00 0.00 68 1014.1
20260506011608 68 44 0.0 2.0 0.00 0.00 0.00 68 1014.2
20260506010057 67 0 0.0 2.0 0.00 0.00 0.00 72 1014.4
20260506004554 66 58 0.0 3.0 0.00 0.00 0.00 71 1014.3
20260506003057 67 0 0.0 1.0 0.00 0.00 0.00 69 1014.4
20260506001555 66 137 1.0 3.0 0.00 0.00 0.00 71 1014.5